Terminal Aerodrome Forecast
Issued by NWS Green Bay, WI

Home | Current Version | Previous Version | Graphics & Text | Print | Product List | Glossary Off
Versions: 1 2 3 4 5 6 7 8 9 10 11 12 13 14 15 16 17 18 19 20 21 22 23 24

000
FTUS43 KGRB 260500
TAFGRB
TAF
KGRB 260525Z 2606/2706 04009KT P6SM SKC
     FM261000 36008KT P6SM SKC
     FM261600 02010G18KT P6SM SKC
     FM262300 03010KT P6SM SKC=

USA.gov is the U.S. government's official web portal to all federal, state and local government web resources and services.